Regional Weather Roundup
Issued by NWS Green Bay, WI

Home | Current Version | Previous Version | Graphics & Text | Print | Product List | Glossary Off
Versions: 1 2 3 4 5 6 7 8 9 10 11 12 13 14 15 16 17 18 19 20 21 22 23 24 25 26 27 28 29 30 31 32 33 34 35 36 37 38 39 40 41 42 43 44 45 46 47 48 49 50

000
ASUS43 KGRB 191411
RWRGRB

NORTH-CENTRAL AND NORTHEAST WISCONSIN REGIONAL WEATHER ROUNDUP
NATIONAL WEATHER SERVICE GREEN BAY WI
800 AM CST SUN NOV 19 2017

WIZ005-009-010>012-018-019-191500-
NORTH CENTRAL WISCONSIN

CITY           SKY/WX    TMP DP  RH WIND       PRES   REMARKS
IRONWOOD       FLURRIES N/A N/A N/A W15       29.92S
MANITOWISH WTR FLURRIES  13   9  85 W10G16    29.90R WCI   0
ARBOR VITAE    LGT SNOW  17  12  82 NW3       29.90R
EAGLE RIVER    FLURRIES  16  10  78 W12       29.88R WCI   3
LAND O LAKES   LGT SNOW  17  13  84 W8        29.88S WCI   6
RHINELANDER    CLOUDY   N/A N/A N/A VRB7      29.90S
PHILLIPS       CLOUDY    13   8  83 W9        29.94R WCI   0
ANTIGO         MOCLDY    17  10  74 NW13      29.91R WCI   4
TOMAHAWK       PTCLDY    14   9  80 W9        29.94R WCI   2
MERRILL        MOCLDY    17  10  74 W8        29.95R WCI   7
$$

WIZ013-073-191500-
NORTHEAST WISCONSIN

CITY           SKY/WX    TMP DP  RH WIND       PRES   REMARKS
IRON MOUNTAIN  FLURRIES  21  11  65 NW14G21   29.87R WCI   8
MARINETTE      CLOUDY    24  12  60 NW6G17    29.93R
OCONTO         CLOUDY    25  12  58 W9G16     29.94R
$$

WIZ017-030-035>037-045-191500-
CENTRAL WISCONSIN

CITY           SKY/WX    TMP DP  RH WIND       PRES   REMARKS
MEDFORD        CLEAR     15   9  78 W10       29.95R WCI   2
WAUSAU         PTCLDY    18  10  71 NW13      29.95R WCI   5
MOSINEE        MOCLDY    18  12  79 W16       29.96R WCI   3
MARSHFIELD     CLEAR     17   9  70 W13       29.97R WCI   4
WISC RAPIDS    PTCLDY    19  10  68 NW9       30.00R WCI   8
STEVENS POINT  PTCLDY    18  10  69 W9G16     29.98R WCI   7
WAUPACA        MOCLDY    24  13  63 W8        29.98R
SHAWANO        CLOUDY    25  13  61 NW9       29.94R
CLINTONVILLE   PTCLDY    21   9  58 NW10      29.96R
WAUTOMA        MOCLDY    22  13  68 NW12      30.00R
$$

WIZ038-039-048-051-191500-
FOX VALLEY

CITY           SKY/WX    TMP DP  RH WIND       PRES   REMARKS
NWS GREEN BAY  CLOUDY    26  17  68 W16       29.94R
APPLETON       MOCLDY    21  10  63 W15       29.93R WCI   8
OSHKOSH        CLOUDY    24  14  65 W16       29.95R
FOND DU LAC    CLOUDY    24  13  62 W10       29.97R
$$

WIZ022-050-052-191500-
EAST CENTRAL WISCONSIN

CITY           SKY/WX    TMP DP  RH WIND       PRES   REMARKS
EPHRAIM        CLOUDY    25  14  62 NW8G24    29.89R
WASHINGTON ISL CLOUDY    26  16  66 NW14      29.88R
STURGEON BAY   PTCLDY    25  13  60 NW17G24   29.92R
MANITOWOC      CLOUDY    27  16  63 NW16G22   29.94R
SHEBOYGAN      CLOUDY    27  18  69 NW17      29.94R
$$

LMZ563-521-522-541>543-191500-
LAKESHORE

STATION/POSITION TIME  TEMP    WIND        PRES    VSBY  WAVE
                       AIR SEA DIR/SP/G                  HT/PER
                 (UTC) (F)     (DEG/KT/KT) (MB)    (MI)  (FT/S)
SHEBOYGAN LKSHOR 1400   27     290/ 16/ 18 1014.6R
NORTHPORT PIER   1335   28     310/ 13/ 25 1011.9R
N MID LAKE BUOY  1350   29 48  310/ 21/ 27 1011.8R         4/ 5
$$




USA.gov is the U.S. government's official web portal to all federal, state and local government web resources and services.